Hourly Data Report for January 01, 2018

All times are specified in Local Standard Time (LST). Add 1 hour to adjust for Daylight Saving Time where and when it is observed.

BARRIE-ORO
ONTARIO

44°29'00.000" N
79°33'00.000" W
289.00 m
6117700
71314
XBI

Download Data

Hourly Data (January 2018)
Hourly Data Report for January 1, 2018
Temp Definition
°C
Dew Point Temp Definition
°C
Rel Hum Definition
%
Wind Dir Definition
10's deg

Wind Spd Definition
km/h
Visibility Definition
km
Stn Press Definition
kPa
Hmdx Definition


Wind Chill Definition


Weather Definition


TIME
00:00 -29.8 -33.3 72 28 3   99.39   -33 LegendNANA
01:00 -29.7 -33.0 73   0   99.33     LegendNANA
02:00 -31.0 -34.4 72 28 4   99.31   -36 LegendNANA
03:00 -31.1 -34.5 72 32 3   99.31   -35 LegendNANA
04:00 -30.7 -34.3 71 35 1   99.25   -32 LegendNANA
05:00 -30.7 -34.1 72 31 3   99.22   -34 LegendNANA
06:00 -26.5 -29.3 77 11 1   99.15   -28 LegendNANA
07:00 -23.3 -25.8 80 14 3   99.07   -26 LegendNANA
08:00 -20.9 -23.3 82 17 4   99.01   -24 LegendNANA
09:00 -20.9 -23.3 81 0 1   98.96   -22 LegendNANA
10:00 -15.6 -17.5 85 23 10   98.90   -22 LegendNANA
11:00 -12.6 -16.0 76 23 15   98.84   -20 LegendNANA
12:00 -12.2 -16.1 73 32 19   98.81   -20 LegendNANA
13:00 -12.6 -15.0 83 29 16   98.79   -20 LegendNANA
14:00 -12.9 -15.2 83 29 17   98.81   -21 LegendNANA
15:00 -14.2 -16.5 83 33 17   98.87   -22 LegendNANA
16:00 -16.3 -19.0 80 33 19   98.94   -26 LegendNANA
17:00 -17.6 -20.3 80 33 18   98.99   -27 LegendNANA
18:00 -17.9 -20.6 79 34 19   99.08   -28 LegendNANA
19:00 -18.9 -21.7 79 35 21   99.12   -29 LegendNANA
20:00 -19.3 -23.5 70 35 22   99.15   -30 LegendNANA
21:00 -20.6 -24.3 72 36 6   99.20   -26 LegendNANA
22:00 -21.8 -25.3 73 2 4   99.21   -25 LegendNANA
23:00 -21.5 -24.9 74 8 4   99.16   -25 LegendNANA

Notes on Data Quality.

Legend

  • E = Estimated
  • M = Missing
  • NA = Not Available
  • ‡ = Partner data that is not subject to review by the National Climate Archives
Date modified: